�������l�o���
Date,Time,MP-1(��Sv/h),MP-2(��Sv/h),MP-3(��Sv/h),MP-4(��Sv/h),MP-5(��Sv/h),MP-6(��Sv/h),MP-7(��Sv/h),MP-8(��Sv/h),����,����(m/s),���J
2019/02/13,00:00,0.767,1.135,0.788,1.460,1.047,0.439,0.788,0.745,�k�k��,6.0,��
2019/02/13,00:10,0.765,1.135,0.786,1.461,1.048,0.437,0.785,0.746,�k�k��,5.9,��
2019/02/13,00:20,0.767,1.137,0.790,1.461,1.050,0.439,0.787,0.745,�k�k��,5.4,��
2019/02/13,00:30,0.768,1.136,0.787,1.458,1.051,0.439,0.786,0.745,�k�k��,5.6,��
2019/02/13,00:40,0.767,1.136,0.788,1.461,1.048,0.439,0.785,0.743,�k�k��,5.6,��
2019/02/13,00:50,0.767,1.138,0.788,1.458,1.049,0.438,0.786,0.746,�k,5.1,��
2019/02/13,01:00,0.766,1.137,0.785,1.462,1.048,0.439,0.785,0.743,�k�k��,4.9,��
2019/02/13,01:10,0.769,1.136,0.786,1.460,1.047,0.438,0.784,0.745,�k�k��,5.6,��
2019/02/13,01:20,0.767,1.134,0.788,1.462,1.049,0.438,0.786,0.744,�k�k��,5.1,��
2019/02/13,01:30,0.767,1.137,0.789,1.461,1.048,0.438,0.786,0.743,�k�k��,5.8,��
2019/02/13,01:40,0.765,1.137,0.788,1.463,1.048,0.438,0.786,0.745,�k,6.3,��
2019/02/13,01:50,0.766,1.137,0.788,1.460,1.048,0.439,0.786,0.746,�k,6.3,��
2019/02/13,02:00,0.765,1.136,0.788,1.459,1.047,0.439,0.785,0.742,�k�k��,6.2,��
2019/02/13,02:10,0.765,1.137,0.789,1.462,1.048,0.438,0.784,0.746,�k�k��,5.8,��
2019/02/13,02:20,0.767,1.137,0.788,1.461,1.049,0.438,0.784,0.745,�k�k��,6.4,��
2019/02/13,02:30,0.766,1.136,0.789,1.459,1.047,0.438,0.786,0.744,�k,7.0,��
2019/02/13,02:40,0.766,1.137,0.789,1.461,1.046,0.439,0.786,0.744,�k�k��,7.2,��
2019/02/13,02:50,0.768,1.135,0.788,1.460,1.049,0.439,0.785,0.745,�k�k��,7.1,��
2019/02/13,03:00,0.766,1.136,0.787,1.461,1.047,0.440,0.787,0.746,�k�k��,7.4,��
2019/02/13,03:10,0.767,1.135,0.787,1.459,1.048,0.440,0.786,0.745,�k�k��,8.0,��
2019/02/13,03:20,0.766,1.137,0.787,1.460,1.048,0.440,0.785,0.745,�k�k��,8.6,��
2019/02/13,03:30,0.768,1.135,0.787,1.461,1.048,0.437,0.787,0.745,�k�k��,8.8,��
2019/02/13,03:40,0.766,1.134,0.786,1.461,1.048,0.438,0.785,0.745,�k�k��,8.9,��
2019/02/13,03:50,0.767,1.133,0.787,1.460,1.047,0.436,0.787,0.745,�k�k��,8.2,��
2019/02/13,04:00,0.767,1.133,0.788,1.460,1.046,0.436,0.786,0.745,�k�k��,7.9,��
2019/02/13,04:10,0.765,1.135,0.788,1.457,1.049,0.439,0.786,0.744,�k��,7.2,��
2019/02/13,04:20,0.767,1.131,0.785,1.459,1.046,0.438,0.787,0.745,�k��,6.7,��
2019/02/13,04:30,0.768,1.137,0.789,1.463,1.047,0.440,0.786,0.746,�k�k��,7.1,��
2019/02/13,04:40,0.768,1.135,0.788,1.462,1.048,0.440,0.787,0.745,�k��,7.6,��
2019/02/13,04:50,0.767,1.136,0.788,1.461,1.046,0.439,0.785,0.747,�k��,7.4,��
2019/02/13,05:00,0.768,1.136,0.789,1.463,1.048,0.439,0.786,0.744,���k��,8.9,��
2019/02/13,05:10,0.767,1.136,0.788,1.462,1.050,0.441,0.787,0.746,���k��,8.4,��
2019/02/13,05:20,0.766,1.137,0.787,1.460,1.047,0.438,0.787,0.744,���k��,8.1,��
2019/02/13,05:30,0.769,1.137,0.789,1.462,1.049,0.440,0.788,0.744,���k��,8.1,��
2019/02/13,05:40,0.767,1.138,0.788,1.460,1.046,0.439,0.788,0.745,���k��,6.5,��
2019/02/13,05:50,0.768,1.138,0.790,1.461,1.047,0.438,0.787,0.746,���k��,7.5,��
2019/02/13,06:00,0.767,1.136,0.787,1.462,1.049,0.439,0.786,0.747,���k��,7.0,��
2019/02/13,06:10,0.767,1.135,0.788,1.460,1.046,0.438,0.786,0.745,���k��,6.7,��
2019/02/13,06:20,0.769,1.137,0.787,1.460,1.046,0.440,0.787,0.745,���k��,7.1,��
2019/02/13,06:30,0.771,1.135,0.789,1.461,1.048,0.439,0.786,0.744,���k��,5.9,��
2019/02/13,06:40,0.768,1.137,0.789,1.460,1.050,0.439,0.785,0.746,���k��,6.8,��
2019/02/13,06:50,0.767,1.135,0.787,1.461,1.047,0.438,0.786,0.746,���k��,5.0,��
2019/02/13,07:00,0.769,1.135,0.789,1.463,1.045,0.439,0.787,0.745,���k��,5.3,��
2019/02/13,07:10,0.766,1.134,0.788,1.461,1.047,0.439,0.786,0.744,���k��,5.3,��
2019/02/13,07:20,0.768,1.136,0.786,1.462,1.048,0.440,0.787,0.745,���k��,5.5,��
2019/02/13,07:30,0.765,1.134,0.787,1.460,1.048,0.440,0.786,0.746,���k��,6.4,��
2019/02/13,07:40,0.768,1.136,0.786,1.459,1.048,0.439,0.788,0.747,���k��,8.1,��
2019/02/13,07:50,0.768,1.133,0.787,1.460,1.048,0.439,0.787,0.744,���k��,8.2,��
2019/02/13,08:00,0.767,1.134,0.788,1.461,1.046,0.440,0.787,0.745,���k��,8.5,��
2019/02/13,08:10,0.767,1.136,0.786,1.462,1.048,0.437,0.785,0.745,���k��,9.1,��
2019/02/13,08:20,0.768,1.132,0.786,1.460,1.048,0.438,0.787,0.745,���k��,9.0,��
2019/02/13,08:30,0.768,1.133,0.788,1.462,1.046,0.440,0.786,0.745,���k��,6.9,��
2019/02/13,08:40,0.769,1.134,0.786,1.463,1.036,0.439,0.787,0.745,�k��,6.5,��
2019/02/13,08:50,0.767,1.131,0.787,1.461,1.031,0.439,0.787,0.746,�k��,6.6,��
2019/02/13,09:00,0.768,1.131,0.788,1.461,1.035,0.440,0.789,0.745,�k��,7.1,��
2019/02/13,09:10,0.768,1.132,0.788,1.463,1.029,0.440,0.788,0.744,�k��,6.8,��
2019/02/13,09:20,0.768,1.129,0.790,1.459,1.026,0.438,0.786,0.747,�k��,4.5,��
2019/02/13,09:30,0.770,1.133,0.790,1.462,1.029,0.439,0.789,0.747,�k��,6.5,��
2019/02/13,09:40,0.770,1.135,0.787,1.465,1.026,0.439,0.786,0.746,�k��,6.2,��
2019/02/13,09:50,0.771,1.136,0.788,1.461,1.030,0.439,0.788,0.747,�k��,6.9,��
2019/02/13,10:00,0.770,1.138,0.790,1.461,1.027,0.439,0.788,0.748,�k��,5.8,��
2019/02/13,10:10,0.772,1.140,0.789,1.465,1.027,0.440,0.787,0.746,�k�k��,5.7,��
2019/02/13,10:20,0.769,1.145,0.791,1.463,1.037,0.440,0.787,0.747,�k�k��,6.0,��
2019/02/13,10:30,0.770,1.143,0.791,1.463,1.027,0.439,0.788,0.745,�k��,4.4,��
2019/02/13,10:40,0.770,1.142,0.789,1.465,1.035,0.442,0.787,0.745,�k,4.8,��
2019/02/13,10:50,0.773,1.148,0.790,1.465,1.037,0.440,0.788,0.746,�k,4.3,��
2019/02/13,11:00,0.771,1.150,0.792,1.465,1.040,0.440,0.785,0.749,�k,4.7,��
2019/02/13,11:10,0.770,1.145,0.791,1.465,1.040,0.441,0.785,0.747,�k,4.4,��
2019/02/13,11:20,0.772,1.148,0.788,1.467,1.039,0.440,0.785,0.748,�k,4.4,��
2019/02/13,11:30,0.773,1.145,0.791,1.467,1.031,0.442,0.785,0.746,�k,2.3,��
2019/02/13,11:40,0.772,1.132,0.792,1.464,1.038,0.442,0.787,0.747,�k�k��,2.0,��
2019/02/13,11:50,0.772,1.135,0.791,1.465,1.039,0.442,0.787,0.746,�k�k��,2.8,��
2019/02/13,12:00,0.773,1.141,0.792,1.467,1.042,0.441,0.787,0.748,�k,3.2,��
2019/02/13,12:10,0.771,1.143,0.794,1.468,1.046,0.441,0.787,0.747,�k�k��,2.6,��
2019/02/13,12:20,0.772,1.145,0.792,1.465,1.045,0.441,0.787,0.747,��,1.9,��
2019/02/13,12:30,0.775,1.143,0.792,1.467,1.045,0.440,0.787,0.747,���쐼,3.7,��
2019/02/13,12:40,0.774,1.142,0.793,1.466,1.047,0.441,0.785,0.750,��,9.7,��
2019/02/13,12:50,0.772,1.139,0.794,1.465,1.045,0.441,0.786,0.750,��,6.9,��
2019/02/13,13:00,0.774,1.139,0.790,1.467,1.045,0.442,0.787,0.747,��,5.4,��
2019/02/13,13:10,0.775,1.138,0.790,1.466,1.048,0.440,0.787,0.748,��,6.8,��
2019/02/13,13:20,0.775,1.134,0.792,1.466,1.055,0.440,0.787,0.749,��,6.6,��
2019/02/13,13:30,0.772,1.137,0.792,1.471,1.054,0.442,0.787,0.746,��,8.5,��
2019/02/13,13:40,0.773,1.136,0.794,1.469,1.056,0.442,0.786,0.747,��,10.2,��
2019/02/13,13:50,0.775,1.136,0.792,1.469,1.054,0.442,0.785,0.747,��,11.1,��
2019/02/13,14:00,0.774,1.137,0.792,1.469,1.050,0.442,0.787,0.746,���k��,9.0,��
2019/02/13,14:10,0.773,1.139,0.794,1.468,1.052,0.442,0.785,0.746,���k��,9.5,��
2019/02/13,14:20,0.773,1.137,0.793,1.468,1.055,0.441,0.787,0.746,��,10.5,��
2019/02/13,14:30,0.774,1.136,0.793,1.469,1.056,0.442,0.787,0.746,��,14.1,��
2019/02/13,14:40,0.774,1.138,0.791,1.469,1.055,0.441,0.788,0.746,��,11.3,��
2019/02/13,14:50,0.775,1.140,0.791,1.468,1.057,0.443,0.787,0.746,��,11.7,��
2019/02/13,15:00,0.773,1.138,0.792,1.470,1.054,0.442,0.788,0.744,��,10.2,��
2019/02/13,15:10,0.775,1.138,0.792,1.468,1.056,0.444,0.789,0.749,���k��,9.2,��
2019/02/13,15:20,0.775,1.141,0.791,1.468,1.058,0.443,0.789,0.748,��,6.6,��
2019/02/13,15:30,0.775,1.142,0.792,1.469,1.056,0.443,0.791,0.748,���k��,6.0,��
2019/02/13,15:40,0.776,1.141,0.793,1.469,1.057,0.441,0.789,0.749,���k��,7.3,��
2019/02/13,15:50,0.775,1.145,0.793,1.470,1.055,0.443,0.790,0.747,���k��,7.4,��
2019/02/13,16:00,0.775,1.145,0.793,1.471,1.057,0.443,0.791,0.747,���k��,8.7,��
2019/02/13,16:10,0.773,1.144,0.795,1.468,1.058,0.443,0.792,0.748,���k��,6.6,��
2019/02/13,16:20,0.775,1.144,0.795,1.471,1.057,0.443,0.790,0.749,���k��,5.8,��
2019/02/13,16:30,0.774,1.145,0.793,1.469,1.057,0.444,0.789,0.747,�k��,6.1,��
2019/02/13,16:40,0.775,1.145,0.794,1.471,1.058,0.441,0.790,0.747,���k��,5.6,��
2019/02/13,16:50,0.773,1.144,0.792,1.469,1.057,0.443,0.789,0.748,���k��,4.3,��
2019/02/13,17:00,0.775,1.145,0.793,1.468,1.059,0.442,0.789,0.747,�k��,3.9,��
2019/02/13,17:10,0.774,1.145,0.794,1.472,1.057,0.442,0.790,0.748,�k��,4.0,��
2019/02/13,17:20,0.771,1.146,0.795,1.470,1.059,0.443,0.789,0.749,�k�k��,4.3,��
2019/02/13,17:30,0.774,1.146,0.792,1.471,1.057,0.441,0.789,0.748,�k�k��,4.1,��
2019/02/13,17:40,0.774,1.145,0.792,1.469,1.056,0.442,0.788,0.748,�k�k��,2.9,��
2019/02/13,17:50,0.773,1.145,0.791,1.468,1.058,0.443,0.790,0.747,�k�k��,2.6,��
2019/02/13,18:00,0.772,1.145,0.792,1.470,1.056,0.440,0.788,0.747,���k��,0.9,��
2019/02/13,18:10,0.771,1.143,0.794,1.471,1.055,0.441,0.788,0.747,���k��,1.7,��
2019/02/13,18:20,0.772,1.144,0.791,1.469,1.056,0.443,0.788,0.748,���k��,2.3,��
2019/02/13,18:30,0.775,1.147,0.791,1.469,1.054,0.441,0.789,0.747,���k��,1.5,��
2019/02/13,18:40,0.772,1.146,0.792,1.468,1.057,0.441,0.787,0.747,�k��,2.0,��
2019/02/13,18:50,0.773,1.145,0.792,1.468,1.058,0.442,0.788,0.746,�k��,2.0,��
2019/02/13,19:00,0.773,1.144,0.791,1.468,1.058,0.442,0.788,0.747,���k��,1.2,��
2019/02/13,19:10,0.771,1.144,0.793,1.467,1.058,0.441,0.788,0.747,��,0.9,��
2019/02/13,19:20,0.771,1.146,0.793,1.467,1.057,0.441,0.787,0.748,���k��,2.9,��
2019/02/13,19:30,0.772,1.143,0.791,1.471,1.054,0.441,0.786,0.747,�k��,2.8,��
2019/02/13,19:40,0.772,1.142,0.790,1.466,1.057,0.440,0.788,0.746,�k��,2.6,��
2019/02/13,19:50,0.771,1.145,0.792,1.470,1.057,0.440,0.788,0.745,�k�k��,2.9,��
2019/02/13,20:00,0.773,1.145,0.790,1.468,1.054,0.443,0.787,0.747,�k�k��,3.3,��
2019/02/13,20:10,0.772,1.144,0.790,1.467,1.056,0.441,0.788,0.746,�k�k��,3.4,��
2019/02/13,20:20,0.773,1.144,0.792,1.467,1.057,0.441,0.786,0.747,�k��,3.1,��
2019/02/13,20:30,0.772,1.144,0.792,1.467,1.057,0.442,0.786,0.746,�k��,2.9,��
2019/02/13,20:40,0.773,1.145,0.793,1.468,1.055,0.441,0.786,0.746,�k��,4.8,��
2019/02/13,20:50,0.771,1.145,0.792,1.469,1.057,0.440,0.786,0.747,�k�k��,5.0,��
2019/02/13,21:00,0.772,1.144,0.792,1.469,1.055,0.440,0.788,0.746,�k��,6.9,��
2019/02/13,21:10,0.770,1.144,0.791,1.469,1.057,0.440,0.787,0.746,�k��,6.7,��
2019/02/13,21:20,0.772,1.146,0.791,1.469,1.054,0.440,0.787,0.747,�k��,7.2,��
2019/02/13,21:30,0.771,1.143,0.791,1.469,1.053,0.440,0.788,0.746,�k��,9.5,��
2019/02/13,21:40,0.772,1.145,0.792,1.469,1.054,0.441,0.787,0.746,�k��,9.9,��
2019/02/13,21:50,0.772,1.143,0.788,1.471,1.057,0.437,0.788,0.748,�k��,10.9,��
2019/02/13,22:00,0.771,1.143,0.791,1.468,1.054,0.439,0.788,0.747,�k��,12.2,��
2019/02/13,22:10,0.769,1.144,0.791,1.467,1.054,0.438,0.787,0.748,�k��,11.0,��
2019/02/13,22:20,0.771,1.139,0.791,1.466,1.054,0.439,0.787,0.745,�k��,11.3,��
2019/02/13,22:30,0.770,1.141,0.789,1.467,1.054,0.439,0.787,0.745,�k��,10.8,��
2019/02/13,22:40,0.770,1.144,0.789,1.467,1.052,0.438,0.785,0.746,�k��,8.5,��
2019/02/13,22:50,0.770,1.141,0.788,1.467,1.052,0.438,0.785,0.746,�k��,9.5,��
2019/02/13,23:00,0.770,1.144,0.791,1.468,1.054,0.440,0.784,0.746,�k��,10.9,��
2019/02/13,23:10,0.771,1.138,0.788,1.467,1.054,0.439,0.785,0.747,���k��,9.3,��
2019/02/13,23:20,0.771,1.142,0.788,1.465,1.053,0.438,0.786,0.747,�k��,7.6,��
2019/02/13,23:30,0.769,1.140,0.791,1.467,1.055,0.437,0.785,0.746,�k��,6.9,��
2019/02/13,23:40,0.768,1.141,0.788,1.468,1.056,0.439,0.786,0.745,�k��,5.1,��
2019/02/13,23:50,0.770,1.141,0.792,1.471,1.054,0.441,0.787,0.746,�k��,4.0,��
